Weather in Diyur

Russia / Komi Republic     65°16′36″N   53°21′32″E
temp.,
°C
wind,
m/s
gust,
m/s
humid.,
%
clouds,
%
prec.,
mm/h
press.,
hPa
HPBL,
m
1 august, sun
sun100:00+13ese3898100 1.7 994487
03:00+13sw1399100 1.8 994165
06:00+13w31098100 0.3 995467
09:00+15wsw499499 0.4 996504
12:00+19wnw4668100 0.3 997988
15:00+18w478576 2.3 999899
18:00+16nw488555 0.8 1001809
21:00+11wnw269727 0.8 1003172
2 august, mon
mon200:00+11w229579 0.0 100465
03:00+10wsw229722 0.0 100536
06:00+13sw11790 0.0 1006213
09:00+19s22540 0.0 1006971
12:00+22ssw234857 0.0 10051568
15:00+20ssw24706 0.9 1005522
18:00+18s25885 1.8 1006160
21:00+15s22955 2.1 100722
3 august, tue
tue300:00+13ssw119641 0.0 100712
03:00+13s229817 0.0 100852
06:00+16s239195 0.0 1009205
09:00+20sse2369100 0.0 1008602
12:00+24sse354986 0.0 10071470
15:00+26sse5743100 0.0 10062152
18:00+24se4105296 0.0 1004865
21:00+20se41364100 0.0 1004562
4 august, wed
wed400:00+17se31394100 1.6 1003423
03:00+16sse3997100 1.8 1003269
06:00+17sse259997 0.9 1003246
09:00+19wsw249599 1.1 1004393
12:00+24sw235393 0.1 10041284
15:00+25w344020 0.1 10051909
18:00+23w1154100 0.0 100529
21:00+19wnw2765100 0.0 1006216
5 august, thu
thu500:00+17wnw387385 0.0 1007265
03:00+14wnw41082100 0.0 1009428
06:00+14nw587999 0.0 1011772
09:00+14nw4667100 0.0 1013922
12:00+14nw4557100 0.0 10151297
15:00+13nw4658100 0.0 10171111
18:00+12nnw3656100 0.0 10181505
21:00+11nnw2758100 0.0 1018509